2023/08/21 00:00:00, 0.0,24.7
2023/08/21 00:10:00, 0.0,23.9
2023/08/21 00:20:00, 0.0,24.0
2023/08/21 00:30:00, 0.0,24.5
2023/08/21 00:40:00, 0.0,24.0
2023/08/21 00:50:00, 0.0,23.7
2023/08/21 01:00:00, 0.0,23.9
2023/08/21 01:10:00, 0.0,24.0
2023/08/21 01:20:00, 0.0,23.8
2023/08/21 01:30:00, 0.0,23.5
2023/08/21 01:40:00, 0.0,23.6
2023/08/21 01:50:00, 0.0,23.7
2023/08/21 02:00:00, 0.0,23.6
2023/08/21 02:10:00, 0.0,23.7
2023/08/21 02:20:00, 0.0,23.5
2023/08/21 02:30:00, 0.0,23.5
2023/08/21 02:40:00, 0.0,23.6
2023/08/21 02:50:00, 0.0,23.5
2023/08/21 03:00:00, 0.0,23.5
2023/08/21 03:10:00, 0.0,23.3
2023/08/21 03:20:00, 0.0,23.4
2023/08/21 03:30:00, 0.0,23.3
2023/08/21 03:40:00, 0.0,23.1
2023/08/21 03:50:00, 0.0,23.0
2023/08/21 04:00:00, 0.0,22.9
2023/08/21 04:10:00, 0.0,23.4
2023/08/21 04:20:00, 0.0,22.9
2023/08/21 04:30:00, 0.0,22.8
2023/08/21 04:40:00, 0.0,22.7
2023/08/21 04:50:00, 0.0,22.7
2023/08/21 05:00:00, 0.0,22.7
2023/08/21 05:10:00, 0.0,23.0
2023/08/21 05:20:00, 0.0,22.6
2023/08/21 05:30:00, 0.0,22.5
2023/08/21 05:40:00, 0.0,22.7
2023/08/21 05:50:00, 0.0,23.0
2023/08/21 06:00:00, 0.0,23.3
2023/08/21 06:10:00, 0.0,23.7
2023/08/21 06:20:00, 0.0,26.0
2023/08/21 06:30:00, 0.0,24.3
2023/08/21 06:40:00, 0.0,24.9
2023/08/21 06:50:00, 0.0,26.8
2023/08/21 07:00:00, 0.0,29.1
2023/08/21 07:10:00, 0.0,31.2
2023/08/21 07:20:00, 0.0,32.3
2023/08/21 07:30:00, 0.0,34.0
2023/08/21 07:40:00, 0.0,28.2
2023/08/21 07:50:00, 0.0,26.5
2023/08/21 08:00:00, 0.0,27.1
2023/08/21 08:10:00, 0.0,27.2
2023/08/21 08:20:00, 0.0,27.1
2023/08/21 08:30:00, 0.0,27.7
2023/08/21 08:40:00, 0.0,28.2
2023/08/21 08:50:00, 0.0,29.1
2023/08/21 09:00:00, 0.0,32.5
2023/08/21 09:10:00, 0.0,33.3
2023/08/21 09:20:00, 0.1,32.8
2023/08/21 09:30:00, 0.0,33.2
2023/08/21 09:40:00, 0.1,33.6
2023/08/21 09:50:00, 0.0,34.7
2023/08/21 10:00:00, 0.2,33.4
2023/08/21 10:10:00, 0.6,34.8
2023/08/21 10:20:00, 0.5,35.2
2023/08/21 10:30:00, 0.7,34.8
2023/08/21 10:40:00, 0.6,34.8
2023/08/21 10:50:00, 0.6,34.9
2023/08/21 11:00:00, 0.3,35.2
2023/08/21 11:10:00, 0.7,35.9
2023/08/21 11:20:00, 0.8,36.4
2023/08/21 11:30:00, 0.9,36.5
2023/08/21 11:40:00, 0.7,36.7
2023/08/21 11:50:00, 0.2,34.8
2023/08/21 12:00:00, 0.5,35.6
2023/08/21 12:10:00, 1.1,37.1
2023/08/21 12:20:00, 1.0,37.0
2023/08/21 12:30:00, 0.9,37.3
2023/08/21 12:40:00, 1.1,37.8
2023/08/21 12:50:00, 0.6,36.2
2023/08/21 13:00:00, 0.0,34.4
2023/08/21 13:10:00, 0.1,33.9
2023/08/21 13:20:00, 0.0,34.0
2023/08/21 13:30:00, 0.7,35.4
2023/08/21 13:40:00, 0.4,34.0
2023/08/21 13:50:00, 0.0,32.4
2023/08/21 14:00:00, 0.0,31.2
2023/08/21 14:10:00, 0.0,30.0
2023/08/21 14:20:00, 0.0,27.8
2023/08/21 14:30:00, 0.0,27.0
2023/08/21 14:40:00, 0.0,26.9
2023/08/21 14:50:00, 0.0,26.7
2023/08/21 15:00:00, 0.0,26.7
2023/08/21 15:10:00, 0.0,26.7
2023/08/21 15:20:00, 0.0,26.7
2023/08/21 15:30:00, 0.0,25.8
2023/08/21 15:40:00, 0.0,25.2
2023/08/21 15:50:00, 0.0,25.2
2023/08/21 16:00:00, 0.0,25.1
2023/08/21 16:10:00, 0.0,24.9
2023/08/21 16:20:00, 0.0,24.6
2023/08/21 16:30:00, 0.0,24.6
2023/08/21 16:40:00, 0.0,24.7
2023/08/21 16:50:00, 0.0,24.6
2023/08/21 17:00:00, 0.0,25.5
